[[{"header":{"parameterUnit":"m.s-1","parameterCategory":1,"la1":30.2992,"la2":30.254,"lo1":-89.0895,"lo2":-89.0443,"dy":0.0025,"dx":0.0025,"nx":19,"ny":19,"refTime":"2026-04-29T09:00:00:Z","depth":0,"parameterNumber":2,"parameterNumberName":"U-component_of_WINDS"},"data":[0,0,0,1.5182,1.5183,1.5202,1.5202,1.5221,1.5222,0,0,0,0,0,0,0,0,0,0,0,1.5173,1.5173,1.5182,1.5183,1.5202,1.5203,1.5221,1.5222,0,0,0,0,0,0,0,0,0,0,0,1.5173,1.5173,1.5173,1.5183,1.5202,1.5203,1.5221,1.5209,0,0,0,0,0,0,0,0,0,0,1.5191,1.5178,1.5173,1.5173,1.5183,1.5202,1.5203,1.5208,1.521,1.521,0,1.5209,0,1.5216,1.5222,1.5222,0,0,0,1.5186,1.5177,1.5186,1.5173,1.5183,1.5202,1.5194,1.5209,1.5211,1.5212,1.5209,1.521,1.5216,1.5222,1.5223,1.5213,1.5213,0,0,1.5185,1.5174,1.5185,1.5187,1.5183,1.5194,1.5195,1.521,1.5207,1.5209,1.5211,1.5216,1.5223,1.5223,1.5213,1.5213,0,0,0,1.518,1.5174,1.5182,1.5186,1.519,1.5194,1.5196,1.5206,1.521,1.5211,1.5216,1.5223,1.5223,1.5214,1.5213,1.5193,0,0,0,1.5179,1.5171,1.5181,1.5175,1.5189,1.5198,1.5192,1.5209,1.5211,1.5216,1.5223,1.5223,1.5214,1.5213,1.5194,1.5186,0,0,0,1.5173,1.517,1.5171,1.5175,1.5183,1.5198,1.5203,1.521,1.5214,1.5222,1.5223,1.5214,1.5214,1.5195,1.5187,1.5179,0,0,0,1.5164,1.5154,1.5171,1.5163,1.5182,1.5186,1.5203,1.5206,1.5211,1.5223,1.5214,1.5213,1.5196,1.5188,1.518,1.517,1.5165,0,0,1.5146,1.5152,1.5148,1.5163,1.5161,1.5184,1.5179,1.5193,1.5204,1.521,1.521,1.5194,1.5187,1.5179,1.5143,1.5139,0,0,0,1.5139,1.5136,1.5138,1.5141,1.5152,1.516,1.5176,1.5182,1.5187,1.5205,1.519,1.5186,1.5182,1.5178,1.5174,1.5171,1.5211,1.5211,1.5211,1.51,1.5113,1.5107,1.5123,1.5126,1.5142,1.5146,1.5156,1.517,1.5166,1.5167,1.5143,1.5138,1.5135,1.5131,1.5164,1.5164,1.5164,1.5164,1.5075,1.5072,1.5089,1.5089,1.5103,1.5104,1.5119,1.5128,1.513,1.5144,1.5141,1.5153,1.513,1.5128,1.5162,1.5163,1.5163,1.5163,1.5163,1.505,1.5051,1.5057,1.5063,1.5067,1.5083,1.5084,1.5097,1.511,1.5107,1.5109,1.5109,1.511,1.5107,1.5107,1.5107,1.5107,1.5107,1.5106,1.5021,1.5029,1.5028,1.5037,1.5041,1.5047,1.5063,1.5067,1.5075,1.5085,1.5085,1.5097,1.5126,1.5132,1.5105,1.5105,1.5106,1.5106,1.5106,1.4989,1.4998,1.4996,1.5,1.5012,1.5014,1.5031,1.5037,1.5043,1.5042,1.5056,1.5075,1.5082,1.5085,1.509,1.5054,1.5054,1.5054,1.5054,1.4967,1.4972,1.4972,1.4977,1.4983,1.4998,1.4995,1.5007,1.5021,1.5025,1.5032,1.5041,1.5043,1.5048,1.5052,1.5057,1.5013,1.5013,1.5013,1.4948,1.4953,1.4948,1.4962,1.4972,1.498,1.4977,1.4982,1.5,1.5012,1.5028,1.503,1.5043,1.5047,1.5059,1.5064,1.5073,0,0]},{"header":{"parameterUnit":"m.s-1","parameterCategory":1,"la1":30.2992,"la2":30.254,"lo1":-89.0895,"lo2":-89.0443,"dy":0.0025,"dx":0.0025,"nx":19,"ny":19,"refTime":"2026-04-29T09:00:00:Z","depth":0,"parameterNumber":3,"parameterNumberName":"V-component_of_WINDS"},"data":[0,0,0,2.2489,2.2489,2.2494,2.2494,2.2499,2.2499,0,0,0,0,0,0,0,0,0,0,0,2.2488,2.2488,2.2489,2.2489,2.2494,2.2494,2.2499,2.2499,0,0,0,0,0,0,0,0,0,0,0,2.2488,2.2488,2.2488,2.2489,2.2494,2.2494,2.2499,2.2496,0,0,0,0,0,0,0,0,0,0,2.2491,2.249,2.2488,2.2488,2.2489,2.2494,2.2494,2.2495,2.2496,2.2497,0,2.2498,0,2.2498,2.2499,2.2499,0,0,0,2.2489,2.249,2.2491,2.2488,2.249,2.2494,2.2492,2.2496,2.2496,2.2497,2.2498,2.2498,2.2498,2.2499,2.2499,2.2505,2.2505,0,0,2.2489,2.2489,2.2491,2.2491,2.2491,2.2492,2.2492,2.2496,2.2496,2.2498,2.2498,2.2498,2.2499,2.2499,2.2505,2.2505,0,0,0,2.2488,2.2489,2.249,2.2491,2.2492,2.2492,2.2492,2.2496,2.2497,2.2498,2.2499,2.2499,2.2499,2.2505,2.2505,2.2507,0,0,0,2.2488,2.2488,2.249,2.2489,2.2492,2.2494,2.2492,2.2496,2.2497,2.2499,2.2499,2.2499,2.2505,2.2505,2.2506,2.2507,0,0,0,2.2488,2.2488,2.2489,2.2489,2.2491,2.2494,2.2495,2.2497,2.2497,2.2499,2.2499,2.2505,2.2505,2.2506,2.2507,2.2509,0,0,0,2.2487,2.249,2.2489,2.2492,2.2491,2.2495,2.2495,2.2498,2.25,2.2499,2.2505,2.2505,2.2506,2.2507,2.2509,2.251,2.2511,0,0,2.2491,2.249,2.2493,2.2492,2.2496,2.2495,2.2499,2.2501,2.2501,2.2504,2.2504,2.2506,2.2507,2.2509,2.2514,2.2515,0,0,0,2.2494,2.2495,2.2496,2.2498,2.25,2.2501,2.2502,2.2503,2.2505,2.2502,2.2508,2.2508,2.2509,2.251,2.251,2.2511,2.2505,2.2505,2.2505,2.2498,2.2499,2.2502,2.2503,2.2505,2.2506,2.2507,2.2508,2.2508,2.2509,2.251,2.2513,2.2514,2.2514,2.2515,2.2511,2.2511,2.2511,2.2511,2.2504,2.2506,2.2505,2.2508,2.2509,2.2511,2.2512,2.2512,2.2514,2.2513,2.2513,2.2512,2.2515,2.2515,2.2511,2.2511,2.2511,2.2511,2.2511,2.2507,2.2508,2.2509,2.2511,2.2513,2.2514,2.2516,2.2516,2.2516,2.2517,2.2517,2.2517,2.2517,2.2517,2.2517,2.2517,2.2517,2.2517,2.2517,2.251,2.2511,2.2513,2.2514,2.2515,2.2517,2.2518,2.2519,2.252,2.252,2.252,2.2519,2.2515,2.2514,2.2517,2.2517,2.2517,2.2517,2.2517,2.2515,2.2514,2.2517,2.2518,2.252,2.2522,2.2522,2.2523,2.2524,2.2525,2.2524,2.2521,2.2521,2.2521,2.252,2.2524,2.2524,2.2524,2.2524,2.2518,2.2518,2.2521,2.2522,2.2524,2.2524,2.2527,2.2528,2.2528,2.2528,2.2528,2.2527,2.2526,2.2526,2.2526,2.2525,2.2531,2.2531,2.2531,2.2521,2.2521,2.2524,2.2524,2.2526,2.2527,2.253,2.2531,2.2531,2.2531,2.2529,2.2529,2.2527,2.2526,2.2526,2.2525,2.2523,0,0]}]]